Zurück zum Katalog

RISAT-2BR1

AktivWissenschaftVLEO
NORAD 44857·PAYLOAD·🇮🇳 India

Gestartet Dec 11, 2019 von Satish Dhawan Space Centre

Loading…

Nächste Überflüge (nächste 24 Stunden)

TLE

AktuellSource: Space-Track

Epoche: Sep 14, 2026, 14:32 UTC

1 44857U 19089F   26257.60620828  .00001974  00000-0  15822-3 0  9991
2 44857  36.9611 301.2691 0012251 192.1085 167.9363 15.00862282370644

Verfolge RISAT-2BR1 in Echtzeit mit AllMySat

Download on the App Store